Change the Weather History Date:

Thursday, January 2, 2014

  Actual Average Record
Temperature  
Mean Temperature 38 °F -  
Max Temperature 50 °F 48 °F 73 °F (2000)
Min Temperature 26 °F 34 °F 10 °F (2001)
Degree Days  
Heating Degree Days 27    
Moisture  
Dew Point 22 °F    
Average Humidity 60    
Maximum Humidity 87    
Minimum Humidity 42    
Precipitation  
Precipitation 0.00 in - - ()
Sea Level Pressure  
Sea Level Pressure 30.24 in    
Wind  
Wind Speed 14 mph (NNW)    
Max Wind Speed 25 mph    
Max Gust Speed 32 mph    
Visibility 10 miles    
Events      
Averages and records for this station are not official NWS values.
T = Trace of Precipitation, MM = Missing Value Source: NWS Daily Summary

Daily Weather History Graph

Daily Weather History Graph

Search for Another Location

Airport or City:

Trip Planner

Search our weather history database for the weather conditions in past years. The results will help you decide how hot, cold, wet, or windy it might be!

Date:

Astronomy

Jan. 02, 2014 Rise Set
Actual Time 7:13 AM CST 5:07 PM CST
Civil Twilight 6:45 AM CST 5:35 PM CST
Nautical Twilight 6:14 AM CST 6:06 PM CST
Astronomical Twilight 5:43 AM CST 6:37 PM CST
Moon 7:59 AM CST (1/2) 6:59 PM CST (1/2)
Length of Visible Light 10h 49m
Length of Day
9h 54m
Waxing Crescent, 3% of the Moon is Illuminated
Jan 2
Waxing Crescent
Jan 7
First Quarter
Jan 15
Full
Jan 23
Last Quarter
Jan 30
New

Hourly Weather History & Observations

Time (CST) Temp. Windchill Dew Point Humidity Pressure Visibility Wind Dir Wind Speed Gust Speed Precip Events Conditions
12:15 AM 48.2 °F - 42.8 °F 82% 29.93 in 10.0 mi South 8.1 mph - N/A   Overcast
12:35 AM 48.2 °F - 42.8 °F 82% 29.93 in 10.0 mi South 5.8 mph - N/A   Overcast
12:55 AM 50.0 °F - 44.6 °F 82% 29.92 in 10.0 mi SSW 8.1 mph - N/A   Overcast
1:15 AM 50.0 °F - 44.6 °F 82% 29.92 in 10.0 mi SSW 9.2 mph - N/A   Overcast
1:35 AM 48.2 °F - 42.8 °F 82% 29.94 in 10.0 mi NW 17.3 mph - N/A   Overcast
1:55 AM 48.2 °F - 42.8 °F 82% 29.95 in 5.0 mi WNW 5.8 mph - N/A   Overcast
2:15 AM 48.2 °F - 42.8 °F 82% 29.95 in 10.0 mi West 6.9 mph - N/A   Overcast
2:35 AM 46.4 °F 43.5 °F 42.8 °F 87% 29.95 in 10.0 mi West 5.8 mph - N/A   Overcast
2:55 AM 46.4 °F 42.9 °F 42.8 °F 87% 29.95 in 10.0 mi West 6.9 mph - N/A   Overcast
3:15 AM 46.4 °F 40.1 °F 42.8 °F 87% 29.96 in 10.0 mi WNW 15.0 mph - N/A   Overcast
3:35 AM 46.4 °F 39.2 °F 41.0 °F 81% 29.97 in 10.0 mi NW 18.4 mph 23.0 mph N/A   Overcast
3:55 AM 46.4 °F 39.5 °F 37.4 °F 71% 29.99 in 10.0 mi NW 17.3 mph - N/A   Overcast
4:15 AM 44.6 °F 36.4 °F 35.6 °F 71% 30.00 in 10.0 mi NW 20.7 mph 29.9 mph N/A   Overcast
4:35 AM 42.8 °F 33.5 °F 30.2 °F 61% 30.02 in 10.0 mi NW 23.0 mph 28.8 mph N/A   Overcast
4:55 AM 39.2 °F 30.2 °F 28.4 °F 65% 30.04 in 10.0 mi NW 17.3 mph 26.5 mph N/A   Overcast
5:15 AM 37.4 °F 26.4 °F 28.4 °F 70% 30.06 in 10.0 mi NW 23.0 mph 28.8 mph N/A   Overcast
5:35 AM 35.6 °F 24.2 °F 26.6 °F 70% 30.08 in 10.0 mi NW 21.9 mph 26.5 mph N/A   Overcast
5:55 AM 33.8 °F 22.2 °F 24.8 °F 70% 30.10 in 10.0 mi NW 20.7 mph 32.2 mph N/A   Mostly Cloudy
6:15 AM 33.8 °F 21.0 °F 23.0 °F 65% 30.11 in 10.0 mi NW 25.3 mph 29.9 mph N/A   Mostly Cloudy
6:35 AM 32.0 °F 18.9 °F 21.2 °F 64% 30.13 in 10.0 mi NW 24.2 mph 32.2 mph N/A   Scattered Clouds
6:55 AM 30.2 °F 17.1 °F 19.4 °F 64% 30.15 in 10.0 mi NW 21.9 mph 31.1 mph N/A   Partly Cloudy
7:15 AM 30.2 °F 17.1 °F 19.4 °F 64% 30.16 in 10.0 mi NW 21.9 mph 29.9 mph N/A   Clear
7:35 AM 30.2 °F 17.4 °F 19.4 °F 64% 30.18 in 10.0 mi NNW 20.7 mph 26.5 mph N/A   Clear
7:55 AM 30.2 °F 17.8 °F 19.4 °F 64% 30.19 in 10.0 mi NNW 19.6 mph 26.5 mph N/A   Clear
8:15 AM 30.2 °F 17.4 °F 19.4 °F 64% 30.22 in 10.0 mi NW 20.7 mph 26.5 mph N/A   Clear
8:35 AM 30.2 °F 17.8 °F 19.4 °F 64% 30.23 in 10.0 mi NW 19.6 mph 24.2 mph N/A   Partly Cloudy
8:55 AM 28.4 °F 14.4 °F 17.6 °F 64% 30.26 in 10.0 mi NW 23.0 mph 27.6 mph N/A   Partly Cloudy
9:15 AM 30.2 °F 17.4 °F 17.6 °F 60% 30.27 in 10.0 mi NNW 20.7 mph 27.6 mph N/A   Partly Cloudy
9:35 AM 30.2 °F 16.8 °F 15.8 °F 55% 30.29 in 10.0 mi NNW 23.0 mph 28.8 mph N/A   Clear
9:55 AM 30.2 °F 17.4 °F 17.6 °F 60% 30.30 in 10.0 mi NNW 20.7 mph 27.6 mph N/A   Clear
10:15 AM 30.2 °F 17.4 °F 17.6 °F 60% 30.32 in 10.0 mi NNW 20.7 mph 26.5 mph N/A   Clear
10:35 AM 32.0 °F 20.1 °F 15.8 °F 51% 30.32 in 10.0 mi NNW 19.6 mph 26.5 mph N/A   Clear
10:55 AM 33.8 °F 22.2 °F 15.8 °F 48% 30.32 in 10.0 mi NNW 20.7 mph 25.3 mph N/A   Clear
11:15 AM 33.8 °F 22.2 °F 17.6 °F 52% 30.32 in 10.0 mi NNW 20.7 mph 25.3 mph N/A   Clear
11:35 AM 33.8 °F 22.8 °F 15.8 °F 48% 30.31 in 10.0 mi NNW 18.4 mph - N/A   Clear
11:55 AM 33.8 °F 23.2 °F 17.6 °F 52% 30.30 in 10.0 mi NNW 17.3 mph 23.0 mph N/A   Clear
12:15 PM 35.6 °F 25.2 °F 17.6 °F 48% 30.30 in 10.0 mi NNW 18.4 mph - N/A   Clear
12:35 PM 35.6 °F 25.5 °F 17.6 °F 48% 30.29 in 10.0 mi NW 17.3 mph - N/A   Clear
12:55 PM 35.6 °F 26.2 °F 17.6 °F 48% 30.29 in 10.0 mi NW 15.0 mph 19.6 mph N/A   Clear
1:15 PM 37.4 °F 28.5 °F 17.6 °F 45% 30.29 in 10.0 mi NNW 15.0 mph - N/A   Clear
1:35 PM 37.4 °F 27.8 °F 17.6 °F 45% 30.29 in 10.0 mi NNW 17.3 mph - N/A   Clear
1:55 PM 37.4 °F 28.2 °F 17.6 °F 45% 30.28 in 10.0 mi NNW 16.1 mph 24.2 mph N/A   Clear
2:15 PM 39.2 °F 30.2 °F 17.6 °F 42% 30.28 in 10.0 mi NNW 17.3 mph - N/A   Clear
2:35 PM 39.2 °F 29.6 °F 17.6 °F 42% 30.28 in 10.0 mi NW 19.6 mph 23.0 mph N/A   Clear
2:55 PM 39.2 °F 29.6 °F 17.6 °F 42% 30.29 in 10.0 mi NNW 19.6 mph 23.0 mph N/A   Clear
3:15 PM 39.2 °F 30.8 °F 17.6 °F 42% 30.30 in 10.0 mi NNW 15.0 mph 21.9 mph N/A   Clear
3:35 PM 37.4 °F 28.9 °F 17.6 °F 45% 30.31 in 10.0 mi NNW 13.8 mph - N/A   Clear
3:55 PM 37.4 °F 28.5 °F 17.6 °F 45% 30.31 in 10.0 mi NNW 15.0 mph - N/A   Clear
4:15 PM 37.4 °F 29.3 °F 17.6 °F 45% 30.33 in 10.0 mi NNW 12.7 mph - N/A   Clear
4:35 PM 37.4 °F 29.8 °F 17.6 °F 45% 30.33 in 10.0 mi NNW 11.5 mph - N/A   Clear
4:55 PM 35.6 °F 28.0 °F 17.6 °F 48% 30.33 in 10.0 mi NNW 10.4 mph - N/A   Clear
5:15 PM 33.8 °F 25.8 °F 17.6 °F 52% 30.34 in 10.0 mi NNW 10.4 mph - N/A   Clear
5:35 PM 33.8 °F 25.8 °F 19.4 °F 56% 30.36 in 10.0 mi NNW 10.4 mph - N/A   Clear
5:55 PM 33.8 °F 24.8 °F 17.6 °F 52% 30.37 in 10.0 mi NNW 12.7 mph 19.6 mph N/A   Clear
6:15 PM 33.8 °F 24.8 °F 17.6 °F 52% 30.38 in 10.0 mi NNW 12.7 mph - N/A   Clear
6:35 PM 32.0 °F 23.6 °F 17.6 °F 55% 30.39 in 10.0 mi NNW 10.4 mph - N/A   Clear
6:55 PM 30.2 °F 20.8 °F 17.6 °F 60% 30.39 in 10.0 mi NNW 11.5 mph - N/A   Clear
7:15 PM 30.2 °F 20.8 °F 17.6 °F 60% 30.40 in 10.0 mi North 11.5 mph - N/A   Clear
7:35 PM 30.2 °F 22.6 °F 17.6 °F 60% 30.41 in 10.0 mi North 8.1 mph - N/A   Clear
7:55 PM 28.4 °F 18.5 °F 19.4 °F 69% 30.42 in 10.0 mi North 11.5 mph - N/A   Clear
8:15 PM 30.2 °F 20.8 °F 15.8 °F 55% 30.43 in 10.0 mi North 11.5 mph - N/A   Clear
8:35 PM 28.4 °F 18.5 °F 15.8 °F 59% 30.44 in 10.0 mi North 11.5 mph - N/A   Clear
8:55 PM 28.4 °F 18.5 °F 15.8 °F 59% 30.45 in 10.0 mi North 11.5 mph - N/A   Clear
9:15 PM 28.4 °F 19.1 °F 15.8 °F 59% 30.45 in 10.0 mi North 10.4 mph - N/A   Clear
9:35 PM 28.4 °F 18.0 °F 15.8 °F 59% 30.46 in 10.0 mi North 12.7 mph - N/A   Clear
9:55 PM 28.4 °F 16.6 °F 14.0 °F 55% 30.46 in 10.0 mi North 16.1 mph - N/A   Clear
10:15 PM 28.4 °F 18.0 °F 14.0 °F 55% 30.46 in 10.0 mi North 12.7 mph - N/A   Clear
10:35 PM 26.6 °F 15.2 °F 15.8 °F 64% 30.47 in 10.0 mi North 13.8 mph - N/A   Clear
10:55 PM 26.6 °F 14.7 °F 14.0 °F 59% 30.47 in 10.0 mi North 15.0 mph - N/A   Clear
11:15 PM 26.6 °F 14.7 °F 14.0 °F 59% 30.47 in 10.0 mi North 15.0 mph - N/A   Clear
11:35 PM 26.6 °F 14.7 °F 12.2 °F 55% 30.47 in 10.0 mi North 15.0 mph - N/A   Clear
11:55 PM 26.6 °F 14.7 °F 12.2 °F 55% 30.48 in 10.0 mi North 15.0 mph - N/A   Clear